Home   Weather   Philadelphia   Past weeks

Flag for USA Past Weather in Philadelphia, Pennsylvania, USA — Yesterday and Last 2 Weeks

Now
69 °F

Mostly cloudy.


Feels Like: 69 °F
Forecast: 58 / 74 °F
Wind: 13 mph from Southwest

Location: Philadelphia International Airport

Current Time: Sep 27, 2016 at 4:58:35 AM

Latest Report: Sep 27, 2016 at 3:54 AM


Visibility: 10 mi

Pressure: 29.92 "Hg

Humidity: 84%

Dew Point: 64 °F

Location of PhiladelphiaLocation

Past Weather in Philadelphia — Graph

°F

Philadelphia Temperature Yesterday

Maximum temperature yesterday: 72 °F (at 1:54 PM)
Minimum temperature yesterday: 54 °F (at 4:54 AM)
Average temperature yesterday: 65 °F

High & Low Weather Summary for the Past Weeks

 TemperatureHumidityPressure
High92 °F (Sep 14, 3:54 PM)94% (Sep 19, 6:54 AM)30.32 "Hg (Sep 19, 6:54 AM)
Low53 °F (Sep 25, 6:54 AM)26% (Sep 12, 3:54 PM)29.93 "Hg (Sep 27, 2:54 AM)
Average72 °F64%30.13 "Hg
* Reported Sep 12 2:54 AM — Sep 27 2:54 AM, Philadelphia, Weather by CustomWeather, © 2016

Note: Actual official high and low records may vary slightly from our data, if they occured in-between our weather recording intervals... More about our weather records

Advertising

Philadelphia Weather History for the Previous 24 Hours

Scroll right to see more
 ConditionsComfort  
Time TempWeatherWind HumidityBarometerVisibility
2:54 AM
Tue, Sep 27
69 °FMostly cloudy.13 mph81%29.93 "Hg10 mi
2:02 AM69 °FMostly cloudy.10 mph84%29.95 "Hg10 mi
1:54 AM69 °FMostly cloudy.10 mph84%29.94 "Hg10 mi
12:54 AM69 °FLight rain. Mostly cloudy.9 mph79%29.96 "Hg10 mi
11:54 PM
Mon, Sep 26
70 °FMostly cloudy.9 mph71%29.97 "Hg10 mi
10:54 PM69 °FMostly cloudy.9 mph68%29.99 "Hg10 mi
9:54 PM69 °FOvercast.7 mph68%30.03 "Hg10 mi
8:54 PM69 °FOvercast.7 mph66%30.04 "Hg10 mi
7:54 PM69 °FOvercast.8 mph59%30.04 "Hg10 mi
6:54 PM69 °FOvercast.7 mph57%30.05 "Hg10 mi
5:54 PM70 °FOvercast.10 mph51%30.05 "Hg10 mi
4:54 PM71 °FOvercast.13 mph47%30.05 "Hg10 mi
3:54 PM71 °FOvercast.10 mph45%30.06 "Hg10 mi
2:54 PM72 °FOvercast.12 mph43%30.09 "Hg10 mi
1:54 PM72 °FOvercast.10 mph44%30.11 "Hg10 mi
12:54 PM71 °FMostly cloudy.12 mph47%30.13 "Hg10 mi
11:54 AM71 °FBroken clouds.12 mph51%30.15 "Hg10 mi
10:54 AM69 °FPartly sunny.9 mph57%30.17 "Hg10 mi
9:54 AM66 °FPartly sunny.3 mph63%30.18 "Hg10 mi
8:54 AM61 °FPartly sunny.5 mph70%30.17 "Hg10 mi
7:54 AM58 °FPartly sunny.6 mph84%30.18 "Hg10 mi
6:54 AM54 °FBroken clouds.No wind86%30.17 "Hg10 mi
5:54 AM56 °FPassing clouds.No wind84%30.17 "Hg10 mi
4:54 AM54 °FPassing clouds.No wind83%30.17 "Hg10 mi
Weather by CustomWeather, © 2016

See weather overviewHow to use our weather pages